Find DemoSat

NORAD ID: 25661 Int'l Des: 1999-014 Owner: BOSL Country: US operational
MEOELLIPTICALHEO_ELLIPTICAL

实时位置

正在加载3D地球...

关于 DemoSat

正在加载描述...

即将过境

Passes for default location (London). Set your location on the main map for personalized predictions.

高度历史

Loading altitude history...

两行轨道根数

1 25661U 99014A 26105.68361855 -.00000086 00000-0 -99251-3 0 9994
2 25661 1.7060 357.1907 7167633 270.9167 14.8693 2.23255157220718
Epoch: Apr 15, 2026 • Age: 16 hours

当前状态

高度 35860.7 km
速度 1.66 km/s
星下点 1.69°N, 119.51°E
发射日期 Mar 28, 1999
运行时间 27 years
类型 other

技术详情

分类 Payload
质量 4700.00 kg
干质量 4700.00 kg
总质量 4700.00 kg
长度 5.00 m
直径 5.00 m
跨度 5.00 m
形状 Irr
制造商 BOKT
平台类型 HS-702 Model
阶段状态 In Orbit
所有者/国家 BOSL/US

Most Searched